Погода в Усть-Хоперской

Россия / Волгоградская область     49°34′30″N   42°23′37″E
темп.,
°C
ветер,
м/с
пор.,
м/с
влажн.,
%
обл.,
%
осадки,
мм/ч
давл.,
гПа
погр.,
м
20 апреля, вт
вт2000:00+8всв2491100 0.0 101593
03:00+8всв3692100 0.0 1014206
06:00+9всв479188 0.0 1013320
09:00+11в5988100 0.0 1012716
12:00+12вюв71192100 1.5 1010705
15:00+13вюв91587100 1.9 1007917
18:00+14ююв10198954 1.3 10051035
21:00+14ю9148780 1.8 1006855
21 апреля, ср
ср2100:00+11ю8159058 0.1 1007799
03:00+10ююз91583100 0.3 10091072
06:00+9ю101585100 0.0 1010905
09:00+11ююз8128058 0.1 10131027
12:00+15юз8105399 0.3 10131855
15:00+15юз7104398 0.3 10152155
18:00+14юз585597 0.1 1016590
21:00+11ююз466772 0.1 1018154
22 апреля, чт
чт2200:00+9юз48785 0.0 1019165
03:00+8ююз48864 0.0 1020153
06:00+8юз48845 0.0 1021166
09:00+13зюз45614 0.0 1022701
12:00+17зюз44464 0.0 10211770
15:00+17зюз3441100 0.1 10212073
18:00+15зюз115388 0.0 102117
21:00+14ю1156100 0.0 102218
23 апреля, пт
пт2300:00+13ююз2261100 0.0 102232
03:00+11ю1167100 0.1 102210
06:00+12ю1164100 0.1 102211
09:00+16ююв334437 0.1 10221177
12:00+17ююз2241100 0.0 10211978
15:00+17зюз234552 0.3 10201579
18:00+15ююз125393 0.4 1020357
21:00+12ю226532 0.8 101935
24 апреля, сб
сб2400:00+11ю357198 0.4 1018105
03:00+11ююз467634 0.4 1017134
06:00+9юз36785 0.0 1017123
09:00+15юз674925 0.0 1016823
12:00+17юз81041100 0.0 10152147
15:00+17юз71046100 0.1 10132197
18:00+8зсз81282100 1.4 1015770
21:00+7зсз510825 2.0 1016584